Aérodrome :
LOGIN :

S'inscrire | Disclaimer

   EN    FR    IT 

 










Légende :    VFR   VFR Marginal   IFR   IFR Intensif   IFR Très Intensif
Visi : 
Plafond : 
>= 8 km
>= 3000ft
5 à 8 km
1000 à 3000 ft
1500m à 5 km
500 à 1000 ft
800 à 1500m
200 à 500 ft
< 800m
< 200 ft
Symboles :   Orages  Brouillard  Fortes neiges  Fortes précipitations  Vent > 20 kt
SIGMETs :   Divers  Orages  Givrage  Turbulence  Onde Orograph.  Cendres Volcan.






- Altitude de l'aérodrome : 75 ft
- Code IATA : YEO


EGDY - RNAS Yeovilton

DERNIER METAR :
  • 260718Z 00000KT 0500 FZFG SCT000 SCT001 M00/M00 Q1021 NOSIG RMK RED RED

METARs EXPIRÉS :
  • 260650Z 00000KT 0500 FZFG BKN000 BKN002 M00/M01 Q1021 RED
  • 260550Z 12001KT 0200 FZFG BKN000 OVC002 M00/M01 Q1021 RED
  • 260450Z AUTO 14001KT 0700 FG SCT001/// OVC140/// M00/M01 Q1020

TAF TAF EGDY
Valide du 26 à 07h jusqu'au 26 à 16h UTC


260540Z 2607/2616 VRB01KT 0500 FG FZFG SCT000
BECMG 2609/2611 CAVOK
BECMG 2611/2613 36002KT



MET'MAP, la Météo Aéronautique d'un coup d'oeil ! - Copyright ORBIFLY Décembre 2007 - Disclaimer

ORBIFLY MET'MAP TEAM :

Programmation & Développement : Alexandra Zaïnal
Sur une idée originale de : Baudouin d'Aumeries
Assistance à la programmation : Marc-Olivier Méhu
Soutien technique & logistique : Manuel Goepfert

Contact : metmap@orbifly.com




SOURCES & CREDITS :

   NOAA